Location: Gleizolles
(44.4833°N, 6.7667°E)
Time: 15:22:59
(UTC+00:00)

Altair - Pass Details

Date: 04 July 2024
Orbit: 1502 x 1681 km, 47.2° (Epoch: 13 July)

Event Time Altitude Azimuth Distance (km) Brightness Sun altitude
Rises 06:41:27 0° 284° (WNW) 4,724 9.5 26.9°
Reaches altitude 10° 06:47:33 10° 255° (WSW) 3,780 9.1 28.0°
Maximum altitude 06:50:14 11° 238° (WSW) 3,682 9.1 28.5°
Drops below altitude 10° 06:52:57 10° 221° (SW) 3,817 9.3 29.0°
Sets 06:59:16 0° 191° (SSW) 4,843 10.0 30.1°
